| time (UTC) | temp F | wind direction | speed knots | gust knots | rain 1hr in | rain 24hr in | rain mn in | humidity % | barometer mb |
| 20260502152007 | 52 | 8 | 0.0 | 5.2 | 0.00 | 0.00 | 0.00 | 46 | 1019.8 |
| 20260502151523 | 51 | 183 | 0.9 | 5.2 | 0.00 | 0.00 | 0.00 | 44 | 1019.8 |
| 20260502151008 | 51 | 26 | 1.7 | 5.2 | 0.00 | 0.00 | 0.00 | 46 | 1019.8 |
| 20260502150507 | 50 | 38 | 2.6 | 6.1 | 0.00 | 0.00 | 0.00 | 44 | 1019.7 |
| 20260502130506 | 45 | 46 | 4.3 | 6.1 | 0.00 | 0.00 | 0.00 | 63 | 1019.4 |
| 20260502123509 | 43 | 70 | 1.7 | 3.5 | 0.00 | 0.00 | 0.00 | 75 | 1019.2 |
| 20260502123031 | 43 | 58 | 1.7 | 3.5 | 0.00 | 0.00 | 0.00 | 77 | 1019.2 |
| 20260502122503 | 42 | 53 | 2.6 | 3.5 | 0.00 | 0.00 | 0.00 | 78 | 1019.2 |
| 20260502121510 | 42 | 46 | 1.7 | 2.6 | 0.00 | 0.00 | 0.00 | 81 | 1019.2 |
| 20260502120507 | 41 | 44 | 1.7 | 2.6 | 0.00 | 0.00 | 0.00 | 84 | 1019.1 |
| 20260502115507 | 40 | 49 | 0.9 | 2.6 | 0.00 | 0.00 | 0.00 | 86 | 1018.9 |
| 20260502114519 | 40 | 53 | 1.7 | 2.6 | 0.00 | 0.00 | 0.00 | 87 | 1018.7 |
| 20260502114006 | 39 | 53 | 1.7 | 1.7 | 0.00 | 0.00 | 0.00 | 88 | 1018.7 |
| 20260502113506 | 39 | 50 | 1.7 | 1.7 | 0.00 | 0.00 | 0.00 | 86 | 1018.6 |
| 20260502113023 | 39 | 50 | 1.7 | 1.7 | 0.00 | 0.00 | 0.00 | 86 | 1018.6 |
| 20260502112506 | 39 | 67 | 1.7 | 1.7 | 0.00 | 0.00 | 0.00 | 86 | 1018.6 |
| 20260502112009 | 40 | 71 | 0.9 | 1.7 | 0.00 | 0.00 | 0.00 | 86 | 1018.5 |
| 20260502111532 | 39 | 74 | 1.7 | 1.7 | 0.00 | 0.00 | 0.00 | 85 | 1018.5 |
| 20260502110503 | 39 | 86 | 0.0 | 0.9 | 0.00 | 0.00 | 0.00 | 87 | 1018.5 |
| 20260502110015 | 39 | 86 | 0.0 | 0.9 | 0.00 | 0.00 | 0.00 | 86 | 1018.5 |
| 20260502105504 | 39 | 86 | 0.9 | 1.7 | 0.00 | 0.00 | 0.00 | 86 | 1018.5 |
| 20260502104519 | 39 | 99 | 0.9 | 0.9 | 0.00 | 0.00 | 0.00 | 87 | 1018.6 |
| 20260502103022 | 39 | 78 | 0.0 | 0.9 | 0.00 | 0.00 | 0.00 | 87 | 1018.6 |
| 20260502102010 | 39 | 78 | 0.0 | 0.9 | 0.00 | 0.00 | 0.00 | 87 | 1018.5 |
| 20260502101526 | 39 | 78 | 0.9 | 1.7 | 0.00 | 0.00 | 0.00 | 87 | 1018.5 |
| 20260502101013 | 39 | 78 | 0.9 | 1.7 | 0.00 | 0.00 | 0.00 | 87 | 1018.6 |
| 20260502100509 | 39 | 79 | 0.9 | 2.6 | 0.00 | 0.00 | 0.00 | 87 | 1018.6 |
| 20260502091524 | 39 | 73 | 0.9 | 3.5 | 0.00 | 0.01 | 0.00 | 88 | 1018.6 |
| 20260502091010 | 39 | 76 | 2.6 | 3.5 | 0.00 | 0.01 | 0.00 | 88 | 1018.4 |
| 20260502090509 | 39 | 91 | 2.6 | 4.3 | 0.00 | 0.01 | 0.00 | 87 | 1018.4 |
| 20260502071517 | 38 | 58 | 2.6 | 6.1 | 0.00 | 0.01 | 0.00 | 88 | 1018.3 |
| 20260502071007 | 38 | 62 | 4.3 | 6.1 | 0.00 | 0.01 | 0.00 | 88 | 1018.3 |
| 20260502070508 | 38 | 60 | 4.3 | 6.1 | 0.00 | 0.01 | 0.00 | 88 | 1018.3 |
| 20260502070023 | 39 | 62 | 3.5 | 5.2 | 0.00 | 0.01 | 0.00 | 88 | 1018.3 |
| 20260502065507 | 39 | 65 | 4.3 | 5.2 | 0.00 | 0.01 | 0.00 | 88 | 1018.3 |
| 20260502065003 | 39 | 63 | 4.3 | 5.2 | 0.00 | 0.01 | 0.00 | 88 | 1018.3 |
| 20260502064514 | 39 | 65 | 4.3 | 5.2 | 0.00 | 0.01 | 0.00 | 87 | 1018.3 |
| 20260502064007 | 39 | 60 | 3.5 | 4.3 | 0.00 | 0.01 | 0.00 | 86 | 1018.4 |
| 20260502063504 | 39 | 74 | 2.6 | 4.3 | 0.00 | 0.01 | 0.00 | 86 | 1018.4 |
| 20260502063017 | 39 | 74 | 3.5 | 5.2 | 0.00 | 0.01 | 0.00 | 86 | 1018.5 |
| 20260502062507 | 39 | 73 | 4.3 | 6.1 | 0.00 | 0.01 | 0.00 | 86 | 1018.5 |
| 20260502062004 | 39 | 64 | 4.3 | 7.8 | 0.00 | 0.01 | 0.00 | 86 | 1018.4 |
| 20260502061515 | 39 | 63 | 5.2 | 9.6 | 0.00 | 0.01 | 0.00 | 85 | 1018.3 |
| 20260502061004 | 40 | 63 | 6.1 | 9.6 | 0.00 | 0.01 | 0.00 | 85 | 1018.4 |
| 20260502060507 | 40 | 57 | 6.1 | 9.6 | 0.00 | 0.01 | 0.00 | 86 | 1018.5 |
| 20260502060022 | 40 | 58 | 6.1 | 9.6 | 0.00 | 0.01 | 0.00 | 85 | 1018.5 |
| 20260502055505 | 40 | 65 | 5.2 | 9.6 | 0.00 | 0.01 | 0.00 | 85 | 1018.5 |
| 20260502055006 | 40 | 62 | 7.0 | 10.4 | 0.00 | 0.01 | 0.00 | 85 | 1018.5 |
| 20260502054506 | 40 | 57 | 7.8 | 10.4 | 0.00 | 0.01 | 0.00 | 84 | 1018.6 |
| 20260502054003 | 41 | 57 | 7.8 | 10.4 | 0.00 | 0.01 | 0.00 | 84 | 1018.6 |
| 20260502053009 | 42 | 65 | 7.8 | 11.3 | 0.00 | 0.01 | 0.00 | 84 | 1018.5 |
| 20260502052504 | 42 | 60 | 7.8 | 11.3 | 0.00 | 0.01 | 0.00 | 84 | 1018.6 |
| 20260502052005 | 42 | 64 | 7.8 | 13.0 | 0.00 | 0.01 | 0.00 | 83 | 1018.5 |
| 20260502051510 | 43 | 55 | 8.7 | 13.0 | 0.00 | 0.01 | 0.00 | 83 | 1018.5 |
| 20260502051003 | 43 | 62 | 7.8 | 11.3 | 0.00 | 0.01 | 0.00 | 84 | 1018.4 |
| 20260502050505 | 43 | 62 | 7.8 | 10.4 | 0.00 | 0.01 | 0.00 | 84 | 1018.4 |
| 20260502050016 | 43 | 62 | 7.8 | 10.4 | 0.00 | 0.01 | 0.00 | 84 | 1018.4 |
| 20260502045506 | 44 | 63 | 6.1 | 8.7 | 0.00 | 0.01 | 0.01 | 85 | 1018.4 |
| 20260502045013 | 44 | 61 | 5.2 | 7.0 | 0.00 | 0.01 | 0.01 | 84 | 1018.4 |
| 20260502044521 | 44 | 67 | 4.3 | 6.1 | 0.00 | 0.01 | 0.01 | 85 | 1018.3 |
| 20260502044006 | 44 | 65 | 4.3 | 6.1 | 0.00 | 0.01 | 0.01 | 85 | 1018.2 |
| 20260502043511 | 44 | 77 | 3.5 | 5.2 | 0.00 | 0.01 | 0.01 | 85 | 1018.1 |
| 20260502043004 | 43 | 70 | 2.6 | 4.3 | 0.00 | 0.01 | 0.01 | 86 | 1018.1 |
| 20260502042504 | 43 | 67 | 3.5 | 4.3 | 0.00 | 0.01 | 0.01 | 86 | 1018.0 |
| 20260502041516 | 43 | 70 | 2.6 | 4.3 | 0.00 | 0.01 | 0.01 | 85 | 1018.2 |
| 20260502041004 | 43 | 67 | 3.5 | 4.3 | 0.00 | 0.01 | 0.01 | 85 | 1018.1 |
| 20260502040504 | 44 | 65 | 3.5 | 5.2 | 0.00 | 0.01 | 0.01 | 84 | 1018.1 |
| 20260502040013 | 44 | 70 | 3.5 | 5.2 | 0.00 | 0.03 | 0.01 | 83 | 1018.1 |
| 20260502035503 | 44 | 75 | 3.5 | 5.2 | 0.00 | 0.04 | 0.01 | 83 | 1018.0 |
| 20260502035007 | 44 | 69 | 3.5 | 6.1 | 0.00 | 0.06 | 0.01 | 83 | 1018.0 |
| 20260502034518 | 44 | 78 | 3.5 | 7.0 | 0.00 | 0.07 | 0.01 | 82 | 1018.0 |
| 20260502034006 | 44 | 86 | 4.3 | 7.0 | 0.00 | 0.07 | 0.01 | 82 | 1017.9 |
| 20260502033508 | 44 | 86 | 4.3 | 7.0 | 0.00 | 0.07 | 0.01 | 82 | 1018.0 |
| 20260502033021 | 45 | 86 | 5.2 | 6.1 | 0.00 | 0.07 | 0.01 | 81 | 1018.0 |
| 20260502032511 | 45 | 68 | 4.3 | 7.8 | 0.00 | 0.07 | 0.01 | 81 | 1018.1 |
| 20260502032012 | 45 | 67 | 4.3 | 8.7 | 0.00 | 0.07 | 0.01 | 80 | 1018.0 |
| 20260502031506 | 45 | 84 | 4.3 | 8.7 | 0.00 | 0.07 | 0.01 | 80 | 1018.0 |
| 20260502030014 | 45 | 64 | 5.2 | 7.0 | 0.00 | 0.07 | 0.01 | 80 | 1017.9 |
| 20260502025503 | 46 | 68 | 5.2 | 7.8 | 0.00 | 0.07 | 0.01 | 79 | 1017.9 |
| 20260502025003 | 46 | 68 | 5.2 | 8.7 | 0.00 | 0.07 | 0.01 | 79 | 1017.8 |
| 20260502024513 | 46 | 58 | 6.1 | 8.7 | 0.00 | 0.07 | 0.01 | 80 | 1017.7 |
| 20260502024006 | 46 | 65 | 6.1 | 8.7 | 0.00 | 0.07 | 0.01 | 79 | 1017.7 |
| 20260502023507 | 46 | 63 | 4.3 | 5.2 | 0.00 | 0.07 | 0.01 | 81 | 1017.6 |
| 20260502023029 | 46 | 63 | 3.5 | 4.3 | 0.00 | 0.08 | 0.01 | 80 | 1017.5 |
| 20260502022509 | 47 | 60 | 3.5 | 4.3 | 0.00 | 0.08 | 0.01 | 80 | 1017.4 |
| 20260502022010 | 47 | 53 | 1.7 | 3.5 | 0.00 | 0.08 | 0.01 | 81 | 1017.4 |
| 20260502021528 | 47 | 50 | 1.7 | 2.6 | 0.00 | 0.08 | 0.01 | 79 | 1017.3 |
| 20260502021007 | 47 | 49 | 1.7 | 3.5 | 0.00 | 0.08 | 0.01 | 78 | 1017.2 |
| 20260502020509 | 47 | 56 | 2.6 | 3.5 | 0.00 | 0.08 | 0.01 | 77 | 1017.1 |
| 20260502020008 | 47 | 50 | 2.6 | 3.5 | 0.00 | 0.08 | 0.01 | 75 | 1017.1 |
| 20260502015002 | 48 | 47 | 0.9 | 2.6 | 0.00 | 0.08 | 0.01 | 73 | 1017.1 |
| 20260502014508 | 48 | 47 | 0.9 | 4.3 | 0.00 | 0.08 | 0.01 | 70 | 1017.1 |
| 20260502013503 | 48 | 57 | 3.5 | 4.3 | 0.00 | 0.08 | 0.01 | 71 | 1016.9 |
| 20260502013014 | 48 | 39 | 0.0 | 0.0 | 0.00 | 0.08 | 0.01 | 71 | 1016.8 |
| 20260502012506 | 48 | 248 | 0.0 | 0.0 | 0.00 | 0.08 | 0.01 | 71 | 1016.8 |
| 20260502012007 | 48 | 248 | 0.0 | 0.0 | 0.00 | 0.08 | 0.01 | 68 | 1016.7 |
| 20260502011519 | 48 | 248 | 0.0 | 0.0 | 0.00 | 0.08 | 0.01 | 69 | 1016.5 |
| 20260502011009 | 48 | 248 | 0.0 | 0.0 | 0.00 | 0.08 | 0.01 | 68 | 1016.5 |
| 20260502010022 | 49 | 248 | 0.0 | 0.0 | 0.00 | 0.08 | 0.01 | 68 | 1016.2 |
| 20260502004526 | 50 | 245 | 0.0 | 0.0 | 0.00 | 0.08 | 0.01 | 63 | 1016.2 |
| 20260502003012 | 51 | 73 | 0.0 | 0.0 | 0.00 | 0.08 | 0.01 | 62 | 1016.0 |
| 20260502001516 | 51 | 84 | 0.0 | 0.0 | 0.00 | 0.08 | 0.01 | 60 | 1015.9 |
| 20260502000019 | 52 | 85 | 0.0 | 0.0 | 0.00 | 0.08 | 0.01 | 59 | 1015.9 |
| 20260501234522 | 52 | 339 | 0.0 | 0.0 | 0.00 | 0.08 | 0.01 | 59 | 1015.9 |
| 20260501233024 | 53 | 326 | 0.0 | 2.6 | 0.00 | 0.08 | 0.01 | 57 | 1016.0 |
| 20260501231514 | 54 | 34 | 0.0 | 2.6 | 0.00 | 0.08 | 0.01 | 56 | 1016.0 |
| 20260501221525 | 55 | 359 | 0.9 | 5.2 | 0.00 | 0.08 | 0.01 | 53 | 1016.3 |
| 20260501221005 | 55 | 280 | 0.9 | 5.2 | 0.00 | 0.08 | 0.01 | 55 | 1016.2 |
| 20260501220016 | 55 | 307 | 0.0 | 5.2 | 0.00 | 0.08 | 0.01 | 54 | 1016.2 |
| 20260501215005 | 55 | 57 | 0.9 | 4.3 | 0.00 | 0.08 | 0.01 | 58 | 1016.3 |
| 20260501214006 | 53 | 359 | 0.9 | 6.1 | 0.00 | 0.08 | 0.01 | 56 | 1016.4 |
| 20260501212508 | 53 | 17 | 1.7 | 7.0 | 0.00 | 0.08 | 0.01 | 60 | 1016.6 |
| 20260501210509 | 53 | 307 | 1.7 | 4.3 | 0.00 | 0.08 | 0.01 | 58 | 1016.8 |
| 20260501205007 | 53 | 335 | 1.7 | 5.2 | 0.00 | 0.08 | 0.01 | 58 | 1016.8 |
| 20260501204520 | 53 | 28 | 0.0 | 5.2 | 0.00 | 0.08 | 0.01 | 61 | 1016.9 |
| 20260501204008 | 53 | 326 | 1.7 | 5.2 | 0.00 | 0.08 | 0.01 | 62 | 1016.9 |
| 20260501203506 | 52 | 307 | 1.7 | 5.2 | 0.00 | 0.08 | 0.01 | 63 | 1016.8 |
| 20260501203021 | 52 | 277 | 1.7 | 5.2 | 0.00 | 0.08 | 0.01 | 62 | 1016.9 |
| 20260501202508 | 53 | 277 | 1.7 | 7.0 | 0.00 | 0.08 | 0.01 | 62 | 1016.9 |
| 20260501202012 | 53 | 310 | 0.0 | 7.0 | 0.00 | 0.08 | 0.01 | 62 | 1016.9 |
| 20260501201524 | 53 | 300 | 0.9 | 4.3 | 0.00 | 0.08 | 0.01 | 59 | 1016.9 |
| 20260501201003 | 53 | 265 | 0.0 | 5.2 | 0.00 | 0.08 | 0.01 | 57 | 1016.8 |
| 20260501200012 | 53 | 283 | 3.5 | 7.8 | 0.00 | 0.08 | 0.01 | 57 | 1016.8 |
| 20260501195505 | 54 | 288 | 5.2 | 7.0 | 0.00 | 0.08 | 0.01 | 56 | 1016.8 |
| 20260501195004 | 53 | 315 | 0.9 | 5.2 | 0.00 | 0.08 | 0.01 | 57 | 1016.8 |
| 20260501194515 | 53 | 274 | 0.9 | 7.8 | 0.00 | 0.08 | 0.01 | 54 | 1016.9 |
| 20260501194005 | 54 | 283 | 2.6 | 7.8 | 0.00 | 0.08 | 0.01 | 54 | 1016.8 |
| 20260501193504 | 55 | 275 | 4.3 | 7.0 | 0.00 | 0.08 | 0.01 | 53 | 1016.8 |
| 20260501193032 | 55 | 330 | 0.9 | 6.1 | 0.00 | 0.08 | 0.01 | 55 | 1016.8 |
| 20260501192511 | 56 | 329 | 1.7 | 3.5 | 0.00 | 0.08 | 0.01 | 58 | 1016.8 |
| 20260501192008 | 55 | 63 | 1.7 | 6.1 | 0.00 | 0.08 | 0.01 | 57 | 1016.8 |
| 20260501191524 | 55 | 62 | 2.6 | 6.1 | 0.00 | 0.08 | 0.01 | 57 | 1016.7 |
| 20260501191008 | 55 | 249 | 1.7 | 3.5 | 0.00 | 0.08 | 0.01 | 58 | 1016.8 |
| 20260501190513 | 54 | 58 | 0.9 | 6.1 | 0.00 | 0.08 | 0.01 | 56 | 1016.8 |
| 20260501185504 | 53 | 67 | 2.6 | 5.2 | 0.00 | 0.08 | 0.01 | 57 | 1016.9 |
| 20260501185004 | 53 | 288 | 1.7 | 9.6 | 0.00 | 0.08 | 0.01 | 58 | 1016.9 |
| 20260501184512 | 54 | 26 | 1.7 | 9.6 | 0.00 | 0.08 | 0.01 | 60 | 1016.8 |
| 20260501184005 | 53 | 296 | 0.9 | 3.5 | 0.00 | 0.08 | 0.01 | 64 | 1016.7 |
| 20260501183504 | 53 | 310 | 1.7 | 6.1 | 0.00 | 0.08 | 0.01 | 58 | 1016.7 |
| 20260501183017 | 53 | 240 | 1.7 | 7.0 | 0.00 | 0.08 | 0.01 | 62 | 1016.7 |
| 20260501182505 | 53 | 15 | 3.5 | 7.0 | 0.00 | 0.08 | 0.01 | 64 | 1016.7 |
| 20260501182007 | 52 | 288 | 2.6 | 5.2 | 0.00 | 0.08 | 0.01 | 62 | 1016.7 |
| 20260501181526 | 52 | 320 | 0.9 | 5.2 | 0.00 | 0.08 | 0.01 | 64 | 1016.8 |
| 20260501181006 | 52 | 307 | 1.7 | 4.3 | 0.00 | 0.08 | 0.01 | 61 | 1016.8 |
| 20260501180508 | 52 | 309 | 0.9 | 3.5 | 0.00 | 0.08 | 0.01 | 60 | 1016.8 |
| 20260501180023 | 52 | 321 | 0.9 | 3.5 | 0.00 | 0.08 | 0.01 | 59 | 1016.9 |
| 20260501175508 | 53 | 53 | 1.7 | 4.3 | 0.00 | 0.08 | 0.01 | 58 | 1016.8 |
| 20260501175008 | 52 | 29 | 1.7 | 4.3 | 0.00 | 0.08 | 0.01 | 58 | 1016.8 |
| 20260501174004 | 52 | 234 | 1.7 | 3.5 | 0.00 | 0.08 | 0.01 | 61 | 1016.9 |
| 20260501173503 | 51 | 27 | 0.9 | 2.6 | 0.00 | 0.08 | 0.01 | 63 | 1017.0 |
| 20260501172506 | 51 | 348 | 0.9 | 4.3 | 0.00 | 0.08 | 0.01 | 64 | 1017.0 |
| 20260501172010 | 51 | 276 | 2.6 | 4.3 | 0.00 | 0.08 | 0.01 | 64 | 1017.0 |
| 20260501171519 | 51 | 303 | 0.9 | 2.6 | 0.00 | 0.08 | 0.01 | 65 | 1017.0 |
| 20260501171010 | 51 | 326 | 0.9 | 3.5 | 0.00 | 0.08 | 0.01 | 68 | 1017.0 |
| 20260501170507 | 51 | 98 | 0.9 | 5.2 | 0.00 | 0.08 | 0.01 | 66 | 1017.0 |
| 20260501170024 | 52 | 247 | 1.7 | 7.0 | 0.00 | 0.08 | 0.01 | 65 | 1017.0 |
| 20260501165506 | 52 | 268 | 1.7 | 7.0 | 0.00 | 0.08 | 0.01 | 66 | 1016.8 |
| 20260501165009 | 53 | 285 | 2.6 | 5.2 | 0.00 | 0.08 | 0.01 | 66 | 1016.8 |
| 20260501164528 | 53 | 21 | 1.7 | 3.5 | 0.00 | 0.08 | 0.01 | 69 | 1016.8 |
| 20260501164010 | 52 | 174 | 0.9 | 6.1 | 0.00 | 0.08 | 0.01 | 67 | 1016.7 |
| 20260501163510 | 52 | 311 | 1.7 | 6.1 | 0.00 | 0.08 | 0.01 | 66 | 1016.7 |
| 20260501162503 | 52 | 283 | 1.7 | 4.3 | 0.00 | 0.08 | 0.01 | 70 | 1016.7 |
| 20260501162007 | 52 | 300 | 1.7 | 3.5 | 0.00 | 0.08 | 0.01 | 69 | 1016.7 |
| 20260501161008 | 52 | 297 | 0.9 | 5.2 | 0.00 | 0.08 | 0.01 | 73 | 1016.6 |
| 20260501160507 | 52 | 70 | 1.7 | 5.2 | 0.00 | 0.08 | 0.01 | 71 | 1016.6 |